Regional Weather Roundup
Issued by NWS Huntsville, AL

Home | Current Version | Previous Version | Text Only | Print | Product List | Glossary On
Versions: 1 2 3 4 5 6 7 8 9 10 11 12 13 14 15 16 17 18 19 20 21 22 23 24 25 26 27 28
000
ASUS44 KHUN 230110
RWRHUN

WEATHER ROUNDUP FOR THE TENNESSEE VALLEY
NATIONAL WEATHER SERVICE HUNTSVILLE AL
800 PM CDT SAT JUL 22 2017

ALZ001>004-230200-
NORTHWEST ALABAMA

CITY           SKY/WX    TMP DP  RH WIND       PRES   REMARKS
COURTLAND HCN    N/A     82 N/A N/A SW5         N/A
RUSSELLVILLE     N/A     77 N/A N/A MISG        N/A
SHOALS AIRPORT CLOUDY    82  73  74 CALM      29.94R
SHOALS TVA RES   N/A     81 N/A N/A MISG        N/A
$$

ALZ005>007-016-230200-
NORTH CENTRAL ALABAMA

CITY           SKY/WX    TMP DP  RH WIND       PRES   REMARKS
CULLMAN AG STN   N/A     84 N/A N/A S5          N/A
DECATUR AP     PTCLDY    86  73  65 W6        29.94R HX  93
HUNTSVILLE AP  CLOUDY    88  76  67 W3        29.94R HX  99
MERIDIANVILLE  MOCLDY    84  70  61 CALM      29.94R
VINEMONT AP    FAIR      86  75  70 SW5       29.98S HX  94
$$

ALZ008>010-230200-
NORTHEAST ALABAMA

CITY           SKY/WX    TMP DP  RH WIND       PRES   REMARKS
ALBERTVILLE    CLOUDY    79  79 100 S5        29.97S
FORT PAYNE     CLOUDY    82  72  69 SW5       29.95S
SCOTTSBORO AP  CLOUDY    84  75  74 SW3       29.95R HX  92
SCOTTSBORO HCN   N/A     82 N/A N/A MISG        N/A
VALLEY HEAD      N/A     81 N/A N/A MISG        N/A
$$

TNZ076-096-097-230200-
SOUTHEASTERN MIDDLE TENNESSEE

CITY           SKY/WX    TMP DP  RH WIND       PRES   REMARKS
TULLAHOMA      PTCLDY    84  73  70 SW7       29.96R HX  91
WINCHESTER     PTCLDY    88  73  62 SW3       29.96R HX  96
$$

...SURROUNDING SITES...

CITY           SKY/WX    TMP DP  RH WIND       PRES   REMARKS
ATLANTA        CLOUDY    80  72  76 CALM      29.99R
ANNISTON       CLOUDY    82  73  74 SW5       29.97R
BIRMINGHAM     CLOUDY    85  70  60 S6        29.98R
CHATTANOOGA    PTCLDY    90  72  55 SW7       29.93R HX  97
CORINTH        FAIR      79  73  83 CALM      29.91S
DALTON         NOT AVBL
GADSDEN        CLOUDY    79  77  94 CALM      29.97R
GOLDEN TRNGL   CLEAR     88  72  58 S9        29.88R HX  94
JACKSON TN     CLOUDY    88  76  67 SW5       29.89R HX  99
MEMPHIS        CLOUDY    90  75  61 S7        29.89R HX 100
NASHVILLE      PTCLDY    90  72  55 SW5       29.90R HX  97
OXFORD MS      FAIR      77  73  88 CALM      29.94R
ROME           CLOUDY    85  78  80 S7        29.93S HX  96
SAVANNAH       CLEAR     81  72  74 S6        29.90S
SELMER         CLEAR     81  73  78 SW5       29.91R
TUPELO         CLOUDY    80  71  74 E3        29.91F
TUSCALOOSA     CLOUDY    86  77  74 S5        29.93S HX  97
$$

...GULF COAST WEATHER...

CITY           SKY/WX    TMP DP  RH WIND       PRES   REMARKS
GULFPORT       CLEAR     80  74  81 W5        29.96R
PASCAGOULA     CLEAR     83  74  74 SW3       29.96S
MOBILE         CLOUDY    82  74  76 SW3       29.98S
GULF SHORES    PTCLDY    83  77  82 SW5       29.98R HX  93
PENSACOLA      PTCLDY    83  74  74 W3        29.98R
DESTIN         CLOUDY    88  74  63 VRB5      29.98S HX  96
APPALACHICOLA  PTCLDY    84  77  79 SW8       30.00S HX  94
$$





USA.gov is the U.S. government's official web portal to all federal, state and local government web resources and services.